Regional Weather Roundup
Issued by NWS

Home | Current Version | Previous Version | Text Only | Print | Product List | Glossary On
Versions: 1 2 3 4 5 6 7 8 9 10 11 12 13 14 15 16 17 18 19 20 21 22 23 24 25 26 27 28 29 30 31 32 33 34 35 36 37 38 39 40 41 42 43 44 45 46 47 48 49 50
000
ASUS43 KMKX 010000
RWRWI

WISCONSIN REGIONAL WEATHER ROUNDUP
NATIONAL WEATHER SERVICE MILWAUKEE/SULLIVAN WI
700 PM CDT TUE JUN 30 2015

NOTE: "FAIR" INDICATES FEW OR NO CLOUDS BELOW 12,000 FEET WITH NO
SIGNIFICANT WEATHER AND/OR OBSTRUCTIONS TO VISIBILITY.

WIZ001-002-006>008-014>016-023>028-010100-
NORTHWEST WISCONSIN

CITY           SKY/WX    TMP DP  RH WIND       PRES   REMARKS
SUPERIOR ARPT  PTSUNNY   59  51  73 E7        29.96S
ASHLAND        MOSUNNY   56  50  80 N7        29.98S
6HR MIN TEMP:  56; 6HR MAX TEMP:  62;

HAYWARD        MOSUNNY   63  50  62 NE8       29.96F
6HR MIN TEMP:  63; 6HR MAX TEMP:  65;

SIREN          MOSUNNY   69  52  54 NE7       29.94F
CUMBERLAND     PTSUNNY   64  50  59 N7        29.94S
RICE LAKE      PTSUNNY   68  52  56 N10       29.95S
CHETEK         PTSUNNY   68  52  56 N8        29.93S
LADYSMITH      PTSUNNY   65  49  56 N9        29.96R
EAU CLAIRE     PTSUNNY   70  50  49 NE9       29.91S
6HR MIN TEMP:  70; 6HR MAX TEMP:  75;

MENOMONIE      MOSUNNY   72  51  47 N10       29.92R
NEW RICHMOND   MOSUNNY   70  53  54 NE8       29.93F
OSCEOLA        SUNNY     71  54  54 N7        29.95S
$$

WIZ003>005-009-010-017-018-010100-
NORTH CENTRAL WISCONSIN

CITY           SKY/WX    TMP DP  RH WIND       PRES   REMARKS
MANITOWISH WTR SUNNY     59  47  64 N7        29.96R
ARBOR VITAE    SUNNY     59  48  66 N7        29.95R
WOODRUFF       SUNNY     59  48  66 N7        29.95R
RHINELANDER    SUNNY     60  44  55 N7        29.95R
6HR MIN TEMP:  59; 6HR MAX TEMP:  63;

EAGLE RIVER    SUNNY     58  44  60 N9        29.94S
LAND O LAKES   MOSUNNY   58  46  64 N9G16     29.96S
PHILLIPS       MOSUNNY   62  47  60 N9        29.95R
TOMAHAWK       MOSUNNY   62  46  55 N3        29.94R
MEDFORD        PTSUNNY   65  50  59 N8        29.93R
MERRILL        MOSUNNY   64  47  53 N10G16    29.93R
$$

WIZ029-030-035-036-043>047-010100-
CENTRAL WISCONSIN

CITY           SKY/WX    TMP DP  RH WIND       PRES   REMARKS
WAUSAU         MOSUNNY   66  49  54 N9        29.90R
6HR MIN TEMP:  65; 6HR MAX TEMP:  68;

MOSINEE        MOSUNNY   64  52  63 NW12      29.92
MARSHFIELD     PTSUNNY   67  51  56 N6        29.91R
6HR MIN TEMP:  66; 6HR MAX TEMP:  71;

STEVENS POINT  CLOUDY    64  52  64 N7        29.91R
WAUPACA        CLOUDY    69  55  61 NW7       29.88R
WAUTOMA        NOT AVBL
WISC RAPIDS    PTSUNNY   67  52  58 N9        29.91R
6HR MIN TEMP:  67; 6HR MAX TEMP:  74;

CAMP DOUGLAS   NOT AVBL
$$

WIZ011>013-019>022-031-037>040-048>050-010100-
NORTHEAST WISCONSIN

CITY           SKY/WX    TMP DP  RH WIND       PRES   REMARKS
ANTIGO         MOSUNNY   61  51  67 N12       29.92R
SHAWANO        CLOUDY    66  55  65 NE12      29.89R
OCONTO         CLOUDY    62  53  71 N13       29.88S
STURGEON BAY   CLOUDY    61  52  72 N13G18    29.91R
6HR MIN TEMP:  61; 6HR MAX TEMP:  63;

GREEN BAY      CLOUDY    66  54  65 N15       29.89R
6HR MIN TEMP:  66; 6HR MAX TEMP:  71;

MANITOWOC      NOT AVBL
APPLETON       PTSUNNY   66  54  63 N12       29.88R
CLINTONVILLE   CLOUDY    68  54  60 NE9       29.87S
OSHKOSH        MOSUNNY   70  56  61 N13       29.86R
6HR MIN TEMP:  69; 6HR MAX TEMP:  74;

$$

WIZ032>034-041-042-053>061-010100-
SOUTHWEST WISCONSIN

CITY           SKY/WX    TMP DP  RH WIND       PRES   REMARKS
LA CROSSE      MOSUNNY   75  53  46 N7        29.88S
6HR MIN TEMP:  69; 6HR MAX TEMP:  77;

SPARTA         PTSUNNY   70  52  52 N9        29.90R
VIROQUA        MOSUNNY   70  55  57 N8G16     29.90S
BOSCOBEL       PTSUNNY   75  58  55 NW7       29.87S
6HR MIN TEMP:  73; 6HR MAX TEMP:  79;

PRAIRIE DU CHI MOSUNNY   73  56  55 N7        29.87S
PLATTEVILLE    MOSUNNY   74  60  61 N9        29.87S
$$

WIZ056-057-062-063-064-067-068-010100-
SOUTH CENTRAL WISCONSIN

CITY           SKY/WX    TMP DP  RH WIND       PRES   REMARKS
REEDSBURG      MOSUNNY   71  55  56 N10       29.87R
BARABOO/DELLS  MOSUNNY   72  52  49 N7        29.87S
LONE ROCK      NOT AVBL
MINERAL POINT  PTSUNNY   73  59  60 NW3       29.88R
MADISON        PTSUNNY   73  58  59 N7        29.85S
6HR MIN TEMP:  72; 6HR MAX TEMP:  77;

MIDDLETON      MOSUNNY   74  56  53 N6        29.86S
WATERTOWN      MOSUNNY   73  58  60 N10       29.84S
MONROE         SUNNY     73  57  56 NW6       29.86S
JANESVILLE     MOSUNNY   75  59  57 NW6       29.84S
$$

WIZ051-052-058>065-066-070>072-010100-
SOUTHEAST WISCONSIN

CITY           SKY/WX    TMP DP  RH WIND       PRES   REMARKS
MILWAUKEE      PTSUNNY   59  53  80 E6        29.87R
6HR MIN TEMP:  59; 6HR MAX TEMP:  68;

WAUKESHA       MOSUNNY   64  57  77 E8        29.87R
MILWAUKEE/TIMM NOT AVBL
RACINE         PTSUNNY   59  53  80 N5        29.88S
6HR MIN TEMP:  59; 6HR MAX TEMP:  75;

BURLINGTON     MOSUNNY   66  59  78 E7        29.85R
KENOSHA        MOSUNNY   62  55  77 E9        29.88R
6HR MIN TEMP:  62; 6HR MAX TEMP:  76;

FOND DU LAC    PTSUNNY   69  57  65 N8        29.87R
6HR MIN TEMP:  69; 6HR MAX TEMP:  74;

SHEBOYGAN      CLOUDY    58  53  84 NE9       29.88R
6HR MIN TEMP:  58; 6HR MAX TEMP:  70;

WEST BEND      PTSUNNY   66  57  72 E6        29.85S
JUNEAU         SUNNY     70  59  68 N8        29.87R
$$

LSZ147-162-010100-
LAKE SUPERIOR

STATION/POSITION TIME  TEMP    WIND        PRES    WAVE
                       AIR SEA DIR/SP/G            HT/PER
                 (UTC) (F)     (DEG/KT/KT) (MB)    (FT/S)
W MID LAKE BUOY  2250   43 39  300/  2/  2 1015.5F   1/ 5
DEVILS ISLAND    2300   56     160/  4/  7 1015.6F
SAXON HARBOR     2340   56        CALM     1015.2R
$$

LMZ867-665-643>646-010100-
LAKE MICHIGAN

STATION/POSITION TIME  TEMP    WIND        PRES    WAVE
                       AIR SEA DIR/SP/G            HT/PER
                 (UTC) (F)     (DEG/KT/KT) (MB)    (FT/S)
CHAMBERS ISLAND  2300   61     320/ 18/ 20 1012.2R
N MID LAKE BUOY  2250   49 42  320/ 16/ 17 1011.2R   3/ 4
NORTHPORT PIER   2300   57     340/ 19/ 23 1012.2R
SISTER BAY       2214   60      40/ 17/ 19   N/A
ALGOMA LAKESHORE 2310           10/  9/ 12   N/A
KEWAUNEE LAKESHO 2300   59      30/  2/  6 1011.0R
SHEBOYGAN LAKESH 2300   55      40/ 10/ 11 1011.7R
PORT WASHINGTON  2340   60      50/ 10/ 12 1011.9R
ATWATER BUOY     2300   58      20/  6/  8 1012.5R
MILWAUKEE LAKESH 2300   57      40/  7/  8   N/A
KENOSHA   LAKESH 2300   58      30/ 11/ 11 1011.2S
$$

TC  - TEMPERATURE IN CELSIUS
VSB - VISIBILITY IN STATUTE MILES
WCI - WIND CHILL INDEX
HX  - HEAT INDEX



USA.gov is the U.S. government's official web portal to all federal, state and local government web resources and services.